Regional Weather Roundup
Issued by NWS Portland, ME

Home | Current Version | Previous Version | Text Only | Print | Product List | Glossary On
Versions: 1 2 3 4 5 6 7 8 9 10 11 12 13 14 15 16 17 18 19 20 21 22 23 24 25 26 27 28 29 30 31 32 33 34 35 36 37 38 39 40 41 42 43 44 45 46 47 48 49 50
742
ASUS41 KGYX 101610
RWRGYX
WEATHER ROUNDUP FOR MAINE AND NEW HAMPSHIRE
NATIONAL WEATHER SERVICE GRAY ME
1100 AM EST SAT DEC 10 2016

MEZ002-005-006-010-012-015-018-020-021-024-026-027-029-101700-
MAINE

CITY           SKY/WX    TMP DP  RH WIND       PRES   REMARKS
PORTLAND       MOSUNNY   25   3  38 NW14      30.25F WCI  13
SANFORD        SUNNY     23   5  46 NW13G20   30.24F WCI  11
BAR HARBOR     MOSUNNY   18   3  52 NW9       30.19F
WISCASSET      SUNNY     24   2  38 VRB7G17   30.24F
ROCKLAND       SUNNY     21   5  50 NW8G17    30.20F
FRYEBURG       MOSUNNY   22   0  38 W8        30.23F
LEWISTONAUBURN CLOUDY    20   4  50 NW21G26   30.23F WCI   4
AUGUSTA        MOSUNNY   19   0  43 NW15G23   30.21F WCI   5
WATERVILLE     MOSUNNY   20   3  48 W12G20    30.17F WCI   8
BANGOR         PTSUNNY   17   2  51 NW16      30.19F WCI   2
GREENVILLE       N/A     11   1  64 VRB7      30.06S
MILLINOCKET    MOSUNNY   14  -1  51 W12G18    30.17S WCI   0
HOULTON        CLOUDY    11   2  67 NW18      30.10F WCI  -7
PRESQUE ISLE   LGT SNOW   9   3  77 W10       30.11F WCI  -5
FRENCHVILLE    MIX PCPN   7  -2  66 NW14      30.04F WCI -10
CARIBOU        LGT SNOW  10   2  69 NW13      30.08F WCI  -5
$$

NHZ002-005-008-009-011-012-014-101700-
NEW HAMPSHIRE

CITY           SKY/WX    TMP DP  RH WIND       PRES   REMARKS
PORTSMOUTH     MOSUNNY   26   4  38 W15G21    30.24F WCI  14
ROCHESTER      SUNNY     23   4  44 NW18G25   30.23F WCI   9
NASHUA         MOSUNNY   24   8  50 W15G21    30.30F WCI  11
MANCHESTER     MOSUNNY   25   4  40 NW15G22   30.27F WCI  13
CONCORD        SUNNY     26   5  40 NW12      30.27F WCI  16
LACONIA        MOSUNNY   21   4  47 W13       30.25F WCI   9
PLYMOUTH         N/A     20   4  49 W15G21    30.28S WCI   6
BERLIN         CLOUDY    15   1  53 N12       30.21F WCI   2
WHITEFIELD     CLOUDY    16   2  54 NW12      30.24F WCI   3
JAFFREY        SUNNY     21   3  45 NW7       30.24F
KEENE          MOSUNNY   22   5  48 NW14G20   30.29F WCI   9
LEBANON        CLOUDY    23   7  50 NW16G22   30.28F WCI  10
MT WASHINGTON  FOG       -9  -9 100 NW54        N/A  VSB 1/8 WCI -45
$$

VTZ005-007-008-101700-
VERMONT

CITY           SKY/WX    TMP DP  RH WIND       PRES   REMARKS
ST JOHNSBURY     N/A     19   4  51 MISG      30.26F
MONTPELIER     CLOUDY    16   6  65 NW8       30.29F
BURLINGTON     PTSUNNY   23   6  48 NW9       30.33F
$$

MAZ007-012-024-CTZ003-RIZ002-NYZ038-NYZ072-101700-
SOUTHERN NEW ENGLAND AND NY

CITY           SKY/WX    TMP DP  RH WIND       PRES   REMARKS
BOSTON         MOSUNNY   26   7  44 W14       30.30F WCI  14
WORCESTER      SUNNY     20   3  48 W15       30.24F WCI   6
NANTUCKET      SUNNY     27   9  46 NW17G24   30.29F WCI  14
PROVIDENCE     PTSUNNY   28   4  35 NW17G25   30.32F WCI  16
HARTFORD       PTSUNNY   28   9  44 NW15      30.34F WCI  16
ALBANY         MOSUNNY   25   7  46 NW12      30.37F WCI  14
NEW YORK CITY  PTSUNNY   34  20  56 NW15      30.39F
$$

ANZ081-ANZ082-ANZ150-NHZ014-MEZ023>029-101700-
COASTAL MARINE OBSERVATIONS

STATION/POSITION TIME  TEMP    WIND        PRES    WAVE
                       AIR SEA DIR/SP/G            HT/PER
                 (UTC) (F)     (DEG/KT/KT) (MB)    (FT/S)
MOUNT DESERT ROC 1600   19                 1021.9F
MATINICUS ROCK   1600   21     320/ 23/ 26 1021.8F
ISLE OF SHOALS   1600   24     290/ 19/ 24 1024.0F
JEFFREYS LEDGE   1538      50                N/A     4/ 4
CASHES LEDGE BUO 1550   25 49  300/ 17/ 23 1023.1F   5/ 6
GEORGES BANK BUO 1550   38 49              1020.5F   9/ 8
$$

.............KEY..............
   WCI - WIND CHILL
   TC  - TEMPERATURE IN CELSIUS
   VSB - VISIBILITY IN MILES
   HX  - HEAT INDEX
   FAIR- INDICATES FEW OR NO CLOUDS BELOW 12,000 FT, WITH NO
         SIGNIFICANT WEATHER AND/OR OBSTRUCTIONS TO VISIBILITY.






USA.gov is the U.S. government's official web portal to all federal, state and local government web resources and services.